Lufkin, TX

6:00 PM CDT on July 27, 2017 (GMT -0500)
Angelina County

Weather History for KLFK - October, 2012

Change the Weather History Date:

Thursday, October 11, 2012

  Actual Average Record
Temperature  
Mean Temperature 78 °F 69 °F  
Max Temperature 87 °F 81 °F 97 °F (1931)
Min Temperature 69 °F 57 °F 36 °F (1952)
Degree Days  
Heating Degree Days 0 1  
Month to date heating degree days 21 11  
Since 1 July heating degree days 21 15  
Cooling Degree Days 13 5  
Month to date cooling degree days 62 73  
Year to date cooling degree days 3014 2470  
Growing Degree Days 29 (Base 50)    
Moisture  
Dew Point 68 °F    
Average Humidity 70    
Maximum Humidity 93    
Minimum Humidity 46    
Precipitation  
Precipitation 0.00 in 0.14 in 3.23 in (1970)
Month to date precipitation 0.01 1.47  
Year to date precipitation 37.68 36.14  
Snow  
Snow 0.00 in - - ()
Month to date snowfall 0.0  
Since 1 July snowfall 0.0  
Since 1 September snowfall 0.0  
Snow Depth 0.00 in    
Sea Level Pressure  
Sea Level Pressure 30.13 in    
Wind  
Wind Speed 6 mph (SE)    
Max Wind Speed 15 mph    
Max Gust Speed 21 mph    
Visibility 8 miles    
Events      
T = Trace of Precipitation, MM = Missing Value Source: NWS Daily Summary

Daily Weather History Graph

Daily Weather History Graph

Search for Another Location

Airport or City:

Trip Planner

Search our weather history database for the weather conditions in past years. The results will help you decide how hot, cold, wet, or windy it might be!

Date:

Astronomy

Oct. 11, 2012 Rise Set
Actual Time 7:19 AM CDT 6:51 PM CDT
Civil Twilight 6:55 AM CDT 7:15 PM CDT
Nautical Twilight 6:27 AM CDT 7:43 PM CDT
Astronomical Twilight 5:58 AM CDT 8:11 PM CDT
Moon 3:13 AM CDT (10/11) 4:15 PM CDT (10/11)
Length of Visible Light 12h 20m
Length of Day
11h 31m
Waning Crescent, 18% of the Moon is Illuminated
Oct 11
Waning Crescent
Oct 15
New
Oct 21
First Quarter
Oct 29
Full
Nov 6
Last Quarter

Hourly Weather History & Observations

Time (CDT) Temp. Heat Index Dew Point Humidity Pressure Visibility Wind Dir Wind Speed Gust Speed Precip Events Conditions
12:33 AM 73.4 °F - 69.8 °F 88% 30.11 in 8.0 mi ENE 4.6 mph - N/A   Overcast
12:53 AM 73.9 °F - 69.1 °F 85% 30.10 in 8.0 mi ENE 5.8 mph - N/A   Overcast
1:22 AM 73.4 °F - 69.8 °F 88% 30.11 in 7.0 mi East 4.6 mph - N/A   Overcast
1:43 AM 73.4 °F - 69.8 °F 88% 30.11 in 7.0 mi ESE 4.6 mph - N/A   Mostly Cloudy
1:53 AM 72.0 °F - 69.1 °F 91% 30.10 in 7.0 mi East 4.6 mph - N/A   Scattered Clouds
2:53 AM 71.1 °F - 68.0 °F 90% 30.10 in 5.0 mi ESE 3.5 mph - N/A   Partly Cloudy
3:27 AM 71.6 °F - 69.8 °F 94% 30.12 in 5.0 mi ESE 3.5 mph - N/A   Mostly Cloudy
4:02 AM 73.4 °F - 69.8 °F 88% 30.12 in 7.0 mi SSE 4.6 mph - N/A   Overcast
4:53 AM 73.0 °F - 69.1 °F 87% 30.10 in 7.0 mi SE 4.6 mph - N/A   Mostly Cloudy
5:48 AM 71.6 °F - 69.8 °F 94% 30.13 in 5.0 mi SE 4.6 mph - N/A   Overcast
5:53 AM 72.0 °F - 69.1 °F 91% 30.12 in 6.0 mi SE 4.6 mph - N/A   Overcast
6:51 AM 71.6 °F - 68.0 °F 88% 30.15 in 5.0 mi ESE 3.5 mph - N/A   Mostly Cloudy
6:53 AM 71.1 °F - 68.0 °F 90% 30.14 in 5.0 mi ESE 3.5 mph - N/A   Mostly Cloudy
7:02 AM 71.6 °F - 68.0 °F 88% 30.15 in 5.0 mi ESE 3.5 mph - N/A   Mostly Cloudy
7:14 AM 71.6 °F - 69.8 °F 94% 30.15 in 5.0 mi ESE 5.8 mph - N/A   Overcast
7:53 AM 72.0 °F - 69.1 °F 91% 30.15 in 4.0 mi ESE 4.6 mph - N/A   Mostly Cloudy
8:53 AM 73.9 °F - 70.0 °F 87% 30.16 in 6.0 mi SE 8.1 mph - N/A   Overcast
9:53 AM 77.0 °F - 70.0 °F 79% 30.18 in 10.0 mi SE 9.2 mph - N/A   Mostly Cloudy
10:53 AM 80.1 °F 82.7 °F 68.0 °F 67% 30.19 in 10.0 mi SSE 13.8 mph 18.4 mph N/A   Scattered Clouds
2:53 PM 87.1 °F 88.9 °F 64.9 °F 48% 30.12 in 10.0 mi SSE 11.5 mph - N/A   Overcast
3:53 PM 86.0 °F 87.6 °F 64.9 °F 49% 30.11 in 10.0 mi SSE 10.4 mph - N/A   Overcast
4:53 PM 82.4 °F 84.6 °F 66.2 °F 58% 30.11 in 10.0 mi SE 5.8 mph - N/A   Overcast
5:53 PM 84.2 °F 86.6 °F 66.2 °F 55% 30.11 in 10.0 mi SE 9.2 mph - N/A   Clear
7:53 PM 77.0 °F - 66.2 °F 69% 30.13 in 10.0 mi SSE 4.6 mph - N/A   Clear
8:53 PM 75.9 °F - 66.0 °F 71% 30.14 in 10.0 mi SSE 5.8 mph - N/A   Clear
9:53 PM 75.0 °F - 64.0 °F 69% 30.15 in 10.0 mi SSE 5.8 mph - N/A   Clear
10:53 PM 72.0 °F - 64.0 °F 76% 30.14 in 10.0 mi SE 5.8 mph - N/A   Clear
11:53 PM 71.1 °F - 64.0 °F 78% 30.14 in 10.0 mi SE 4.6 mph - N/A   Clear